Tracking 28790 objects as of 19-Apr-2024
HD Live streaming from Space Station
objects crossing your sky now

STARLINK-1614

Track STARLINK-1614 now!
10-day predictions
STARLINK-1614 is classified as:


NORAD ID: 46124
Int'l Code: 2020-057H
Perigee: 553.4 km
Apogee: 555.3 km
Inclination: 53.1 °
Period: 95.6 minutes
Semi major axis: 6925 km
RCS: Unknown
Launch date: August 18, 2020
Source: United States (US)
Launch site: AIR FORCE EASTERN TEST RANGE (AFETR)
Your satellite tracking list
Your tracking list is empty




NASA's NSSDC Master Catalog

Two Line Element Set (TLE):
1 46124U 20057H   24109.29810651 -.00001376  00000-0 -73502-4 0  9999
2 46124  53.0530 135.9056 0001370  82.7255 277.3889 15.06388829202574
Source of the keplerian elements: AFSPC